• In Belarus
  • List of Countries
  • For 7 days
  • Water Temperature
  • Satellite Maps
  • Weather Map
  • Weather Widgets
  • user-avatar
    Login

    Hourly Weather Salawaj

    Today, 14 December, Friday

    Time Temperature Precipitation Wind Pressure Humidity
    00:00 +22°C° 0 mm 1 mps 747 mmHg 87%
    01:00 +19°C° 0 mm 0 mps 746 mmHg 91%
    02:00 +21°C° 0 mm 1 mps 747 mmHg 91%
    03:00 +21°C° 0 mm 1 mps 747 mmHg 90%
    04:00 +21°C° 0 mm 1 mps 747 mmHg 90%
    05:00 +21°C° 0 mm 1 mps 747 mmHg 89%
    06:00 +22°C° 0 mm 1 mps 747 mmHg 88%
    07:00 +22°C° 0 mm 1 mps 747 mmHg 82%
    08:00 +24°C° 0 mm 2 mps 747 mmHg 74%
    09:00 +27°C° 0 mm 2 mps 747 mmHg 65%
    10:00 +29°C° 0 mm 3 mps 748 mmHg 57%
    11:00 +30°C° 0 mm 3 mps 747 mmHg 55%
    12:00 +30°C° 0 mm 3 mps 747 mmHg 53%
    13:00 +32°C° 0 mm 2 mps 746 mmHg 50%
    14:00 +31°C° 0 mm 2 mps 746 mmHg 53%
    15:00 +30°C° 0 mm 3 mps 745 mmHg 57%
    16:00 +29°C° 0 mm 3 mps 745 mmHg 60%
    17:00 +27°C° 0 mm 2 mps 745 mmHg 67%
    18:00 +26°C° 0 mm 2 mps 745 mmHg 75%
    19:00 +24°C° 0 mm 1 mps 746 mmHg 82%
    20:00 +24°C° 0 mm 1 mps 746 mmHg 84%
    21:00 +23°C° 0 mm 1 mps 746 mmHg 86%
    22:00 +23°C° 0 mm 1 mps 746 mmHg 88%
    23:00 +23°C° 0 mm 1 mps 746 mmHg 89%

    Tomorrow, 15 December, Saturday

    Time Temperature Precipitation Wind Pressure Humidity
    00:00 +23°C° 0 mm 1 mps 746 mmHg 90%
    01:00 +23°C° 0 mm 1 mps 746 mmHg 91%
    02:00 +22°C° 0 mm 1 mps 746 mmHg 91%
    03:00 +22°C° 0 mm 1 mps 745 mmHg 91%
    04:00 +22°C° 0 mm 1 mps 745 mmHg 91%
    05:00 +23°C° 0 mm 1 mps 745 mmHg 89%
    06:00 +23°C° 0 mm 1 mps 746 mmHg 88%
    07:00 +24°C° 0 mm 1 mps 746 mmHg 86%
    08:00 +26°C° 0 mm 2 mps 746 mmHg 76%
    09:00 +28°C° 0 mm 2 mps 747 mmHg 67%
    10:00 +31°C° 0 mm 2 mps 747 mmHg 57%
    11:00 +31°C° 0 mm 3 mps 747 mmHg 55%
    12:00 +33°C° 0 mm 3 mps 746 mmHg 53%
    13:00 +34°C° 0 mm 3 mps 746 mmHg 51%
    14:00 +33°C° 0 mm 3 mps 745 mmHg 54%
    15:00 +31°C° 0 mm 3 mps 745 mmHg 57%
    16:00 +30°C° 0 mm 2 mps 744 mmHg 60%
    17:00 +29°C° 0 mm 2 mps 745 mmHg 67%
    18:00 +27°C° 0 mm 2 mps 745 mmHg 73%
    19:00 +25°C° 0 mm 1 mps 745 mmHg 79%
    20:00 +25°C° 0 mm 1 mps 746 mmHg 81%
    21:00 +24°C° 0 mm 1 mps 746 mmHg 83%
    22:00 +24°C° 0 mm 1 mps 746 mmHg 85%
    23:00 +24°C° 0 mm 1 mps 746 mmHg 86%

    Day after tomorrow, 16 December, Sunday

    Time Temperature Precipitation Wind Pressure Humidity
    00:00 +24°C° 0 mm 1 mps 746 mmHg 87%
    01:00 +23°C° 0 mm 1 mps 746 mmHg 88%
    02:00 +23°C° 0 mm 1 mps 746 mmHg 89%
    03:00 +23°C° 0 mm 1 mps 745 mmHg 91%
    04:00 +23°C° 0 mm 1 mps 745 mmHg 92%
    05:00 +23°C° 0 mm 1 mps 745 mmHg 91%
    06:00 +23°C° 0 mm 1 mps 746 mmHg 90%
    07:00 +24°C° 0 mm 1 mps 746 mmHg 88%
    08:00 +26°C° 0 mm 1 mps 747 mmHg 78%
    09:00 +29°C° 0 mm 2 mps 747 mmHg 68%
    10:00 +31°C° 0 mm 2 mps 747 mmHg 57%
    11:00 +32°C° 0 mm 2 mps 747 mmHg 54%
    12:00 +34°C° 0 mm 2 mps 746 mmHg 51%
    13:00 +35°C° 0 mm 3 mps 745 mmHg 47%
    14:00 +34°C° 0 mm 3 mps 744 mmHg 51%
    15:00 +33°C° 0 mm 3 mps 744 mmHg 54%
    16:00 +31°C° 0 mm 3 mps 744 mmHg 57%
    17:00 +29°C° 0 mm 2 mps 744 mmHg 65%
    18:00 +27°C° 0 mm 2 mps 745 mmHg 72%
    19:00 +26°C° 0 mm 1 mps 745 mmHg 79%
    20:00 +25°C° 0 mm 1 mps 745 mmHg 81%
    21:00 +24°C° 0 mm 1 mps 746 mmHg 83%
    22:00 +24°C° 0 mm 1 mps 746 mmHg 86%
    23:00 +24°C° 0 mm 1 mps 746 mmHg 87%

    17 December, Monday

    Time Temperature Precipitation Wind Pressure Humidity
    00:00 +23°C° 0 mm 1 mps 746 mmHg 88%
    01:00 +23°C° 0 mm 1 mps 745 mmHg 89%
    02:00 +23°C° 0 mm 1 mps 745 mmHg 90%
    03:00 +23°C° 0 mm 1 mps 745 mmHg 90%
    04:00 +23°C° 0 mm 1 mps 745 mmHg 91%
    05:00 +23°C° 0 mm 1 mps 745 mmHg 90%
    06:00 +23°C° 0 mm 1 mps 746 mmHg 88%
    07:00 +24°C° 0 mm 1 mps 746 mmHg 87%
    08:00 +26°C° 0 mm 1 mps 746 mmHg 77%
    09:00 +28°C° 0 mm 2 mps 747 mmHg 67%
    10:00 +31°C° 0 mm 2 mps 747 mmHg 58%
    11:00 +31°C° 0 mm 2 mps 746 mmHg 55%
    12:00 +32°C° 0 mm 2 mps 746 mmHg 51%
    13:00 +34°C° 0 mm 2 mps 745 mmHg 48%
    14:00 +32°C° 0 mm 2 mps 744 mmHg 52%
    15:00 +31°C° 0 mm 2 mps 744 mmHg 55%
    16:00 +30°C° 0 mm 2 mps 744 mmHg 58%
    17:00 +28°C° 0 mm 2 mps 744 mmHg 65%
    18:00 +27°C° 0 mm 2 mps 745 mmHg 71%
    19:00 +25°C° 0 mm 2 mps 745 mmHg 77%
    20:00 +24°C° 0 mm 1 mps 746 mmHg 80%
    21:00 +24°C° 0 mm 1 mps 746 mmHg 83%
    22:00 +23°C° 0 mm 1 mps 746 mmHg 86%
    23:00 +23°C° 0 mm 1 mps 746 mmHg 87%

    18 December, Tuesday

    Time Temperature Precipitation Wind Pressure Humidity
    00:00 +23°C° 0 mm 1 mps 746 mmHg 88%
    01:00 +22°C° 0 mm 1 mps 745 mmHg 89%
    02:00 +22°C° 0 mm 1 mps 745 mmHg 90%
    03:00 +22°C° 0 mm 1 mps 745 mmHg 91%
    04:00 +22°C° 0 mm 1 mps 745 mmHg 91%
    05:00 +22°C° 0 mm 1 mps 745 mmHg 90%
    06:00 +22°C° 0 mm 1 mps 746 mmHg 88%
    07:00 +23°C° 0 mm 1 mps 746 mmHg 87%
    08:00 +25°C° 0 mm 1 mps 746 mmHg 77%
    09:00 +28°C° 0 mm 1 mps 746 mmHg 66%
    10:00 +30°C° 0 mm 1 mps 747 mmHg 56%
    11:00 +31°C° 0 mm 1 mps 746 mmHg 52%
    12:00 +32°C° 0 mm 1 mps 745 mmHg 48%
    13:00 +34°C° 0 mm 1 mps 744 mmHg 45%
    14:00 +33°C° 0 mm 1 mps 744 mmHg 47%
    15:00 +32°C° 0 mm 1 mps 743 mmHg 50%
    16:00 +31°C° 0 mm 1 mps 743 mmHg 53%
    17:00 +29°C° 0 mm 1 mps 743 mmHg 62%
    18:00 +27°C° 0 mm 1 mps 744 mmHg 70%
    19:00 +25°C° 0 mm 1 mps 745 mmHg 78%
    20:00 +24°C° 0 mm 1 mps 745 mmHg 81%
    21:00 +24°C° 0 mm 1 mps 745 mmHg 84%
    22:00 +23°C° 0 mm 1 mps 746 mmHg 87%
    23:00 +23°C° 0 mm 1 mps 745 mmHg 88%

    19 December, Wednesday

    Time Temperature Precipitation Wind Pressure Humidity
    00:00 +23°C° 0 mm 1 mps 745 mmHg 89%
    01:00 +22°C° 0 mm 1 mps 745 mmHg 90%
    02:00 +22°C° 0 mm 1 mps 745 mmHg 90%
    03:00 +22°C° 0 mm 1 mps 744 mmHg 90%
    04:00 +22°C° 0 mm 1 mps 744 mmHg 91%
    05:00 +22°C° 0 mm 1 mps 744 mmHg 89%
    06:00 +22°C° 0 mm 1 mps 745 mmHg 88%
    07:00 +22°C° 0 mm 1 mps 745 mmHg 87%
    08:00 +26°C° 0 mm 1 mps 745 mmHg 75%
    09:00 +29°C° 0 mm 1 mps 746 mmHg 63%
    10:00 +32°C° 0 mm 1 mps 746 mmHg 51%
    11:00 +33°C° 0 mm 1 mps 745 mmHg 47%
    12:00 +35°C° 0 mm 1 mps 744 mmHg 43%
    13:00 +36°C° 0 mm 1 mps 744 mmHg 39%
    14:00 +35°C° 0 mm 1 mps 743 mmHg 42%
    15:00 +34°C° 0 mm 1 mps 743 mmHg 45%
    16:00 +34°C° 0 mm 1 mps 742 mmHg 47%
    17:00 +31°C° 0 mm 1 mps 743 mmHg 56%
    18:00 +29°C° 0 mm 1 mps 743 mmHg 66%
    19:00 +27°C° 0 mm 1 mps 744 mmHg 75%
    20:00 +26°C° 0 mm 1 mps 744 mmHg 79%
    21:00 +25°C° 0 mm 1 mps 744 mmHg 83%
    22:00 +25°C° 0 mm 1 mps 745 mmHg 86%
    23:00 +24°C° 0 mm 1 mps 745 mmHg 88%
    Show more